Find Starlink 32620

NORAD ID: 61928 Int'l Des: 2024-207 Owner: SPXS Country: US Constellation: starlink operational
LEOCIRCULAR

現在のビュー

3D地球を読み込み中...

About Starlink 32620

Starlink 32620 (NORAD 61928) is a starlink constellation satellite (v2 mini) launched Nov 11, 2024 by SPXS of US. It operates in LEO, CIRCULAR orbit with a mass of 730.00 kg.

次回通過

Passes for default location (London). Set your location on the main map for personalized predictions.

高度履歴

Loading altitude history...

軌道要素

1 61928U 24207S 26263.35557400 .00002578 00000-0 10323-3 0 9993
2 61928 42.9994 262.3735 0001198 255.3604 104.7115 15.27562053104490
Epoch: Sep 20, 2026 • Age: 20 hours

現在のステータス

高度 495.6 km
遠地点 / 近地点 N/A
速度 7.62 km/s
衛星直下点 -43.15°S, 98.7°E
打ち上げ日 Nov 11, 2024
運用期間 1.8 years
タイプ internet

技術仕様

分類 Payload
質量 730.00 kg
乾燥質量 700.00 kg
長さ 0.30 m
スパン 29.00 m
形状 ? Box + pan
製造者 SPXS
バスタイプ Starlink V2M
フェーズステータス In Orbit
所有者/国 SPXS/US

Most Searched